[[{"header":{"parameterUnit":"m.s-1","parameterCategory":1,"la1":30.2991,"la2":30.254,"lo1":-89.0895,"lo2":-89.0444,"dy":0.0017,"dx":0.0017,"nx":28,"ny":28,"refTime":"2025-06-06T03:00:00:Z","depth":0,"parameterNumber":2,"parameterNumberName":"U-component_of_WINDS"},"data":[0,0,0,0,0,0,0,0,0,0,0,0,0,0,0,0,0,0,0,0,0,0,0,0,0,0,0,0,0,0,0,0,0,0,0,0,0,0,0,0,0,0,0,0,0,0,0,0,0,0,0,0,0,0,0,0,0,0,3.0293,3.0293,0,3.0337,3.0338,3.0338,3.0279,3.0277,3.0275,3.0273,3.0317,3.032,3.0323,0,0,0,0,0,0,0,0,0,0,0,0,0,3.0155,3.0157,3.0293,3.0293,3.0294,3.0337,3.0338,3.0338,3.0279,3.0277,3.0274,3.0272,3.0316,3.0319,3.0323,0,0,0,0,0,0,0,0,0,0,0,0,0,3.0208,3.0158,3.0293,3.027,3.0268,3.0337,3.0338,3.0338,3.028,3.0277,3.0273,3.027,3.0314,3.0319,3.0324,3.0417,0,0,3.0338,3.034,0,0,0,0,0,0,0,0,3.0205,3.0213,3.0273,3.0271,3.027,3.0299,3.0305,3.0365,3.0281,3.0275,3.0272,3.0269,3.0313,3.0318,3.0333,3.0419,3.0421,3.0339,3.0342,3.0344,3.0345,0,0,0,0,0,0,0,3.0202,3.0211,3.031,3.0273,3.0272,3.0256,3.026,3.0316,3.0312,3.0275,3.0271,3.0277,3.0312,3.0329,3.0334,3.0422,3.0339,3.0343,3.0346,3.0348,3.0582,3.0585,0,0,0,0,0,0,3.0201,3.0209,3.0309,3.0312,3.0229,3.0261,3.0266,3.0293,3.0311,3.0311,3.028,3.0274,3.0322,3.0328,3.0335,3.0442,3.0344,3.0348,3.0351,3.0579,3.0583,3.0587,0,0,0,0,0,0,3.0198,3.0211,3.0307,3.0259,3.027,3.0267,3.0298,3.0296,3.0312,3.0314,3.0313,3.0298,3.032,3.0329,3.0396,3.0443,3.035,3.0354,3.0575,3.058,3.0585,3.0659,0,0,0,0,0,0,3.0195,3.021,3.0246,3.026,3.0273,3.0368,3.0301,3.0299,3.0321,3.0314,3.0331,3.0331,3.0318,3.039,3.0401,3.0448,3.0358,3.0571,3.0577,3.0583,3.0653,3.0666,3.0678,0,0,0,0,0,3.019,3.0266,3.0248,3.0261,3.0318,3.0371,3.0378,3.0363,3.0325,3.036,3.0361,3.033,3.0437,3.0397,3.0409,3.0458,3.0567,3.0575,3.0583,3.0647,3.0664,3.0678,0,0,0,0,0,0,3.0257,3.0267,3.0248,3.0331,3.0351,3.0361,3.0405,3.0381,3.0412,3.0404,3.0383,3.0387,3.0459,3.0466,3.0421,3.0548,3.0496,3.0506,3.054,3.0556,3.0569,3.0564,3.0362,0,0,0,0,0,3.0282,3.0325,3.0331,3.0404,3.0414,3.0409,3.0431,3.0417,3.0437,3.0445,3.0451,3.047,3.0508,3.0533,3.0568,3.0654,3.0655,3.0694,3.0707,3.0717,3.0726,3.0768,3.0784,3.0612,3.0612,3.0611,0,0,3.0332,3.0343,3.0372,3.0417,3.0431,3.0474,3.0416,3.0465,3.0497,3.0452,3.0515,3.0521,3.0541,3.0618,3.0652,3.0626,3.0774,3.0727,3.0735,3.0738,3.0778,3.0794,3.0809,3.0617,3.0616,3.0615,0,0,3.0446,3.0461,3.0521,3.0535,3.0557,3.0552,3.0567,3.0581,3.0582,3.0646,3.0612,3.065,3.0716,3.073,3.0747,3.0865,3.0837,3.0878,3.0943,3.0985,3.0998,3.101,3.1049,3.1064,3.0887,3.0887,3.0887,0,3.0506,3.0571,3.0555,3.0605,3.0625,3.0587,3.0647,3.0662,3.0694,3.0708,3.0678,3.0758,3.077,3.0848,3.0876,3.0892,3.0906,3.0874,3.0998,3.101,3.1021,3.1057,3.1072,3.0891,3.0891,3.089,3.089,0,3.0642,3.0688,3.0734,3.0764,3.079,3.0845,3.0835,3.0863,3.0847,3.0845,3.0909,3.0921,3.0956,3.0975,3.096,3.105,3.1032,3.1002,3.0948,3.1042,3.1076,3.109,3.0898,3.0896,3.0895,3.0894,0,0,3.0798,3.0819,3.0835,3.0848,3.0868,3.0902,3.0955,3.099,3.1012,3.1036,3.1077,3.1134,3.1104,3.1123,3.111,3.1147,3.1236,3.111,3.1111,3.113,3.1331,3.1352,3.1369,3.1218,3.1221,3.1223,3.1328,0,3.0909,3.1,3.0986,3.1073,3.1113,3.1078,3.1123,3.114,3.114,3.1173,3.1172,3.1211,3.1171,3.1181,3.1217,3.1217,3.1275,3.121,3.1254,3.1256,3.1246,3.1387,3.1409,3.1508,3.1342,3.1344,3.1346,0,3.105,3.1078,3.1169,3.1181,3.1197,3.1238,3.1267,3.13,3.1318,3.1315,3.1335,3.1315,3.1366,3.1314,3.1382,3.1338,3.1356,3.1359,3.1362,3.1362,3.1304,3.1388,3.1539,3.1553,3.1367,3.1365,3.1364,0,3.115,3.121,3.1271,3.1284,3.13,3.1329,3.1338,3.1352,3.1373,3.1399,3.1412,3.1444,3.146,3.1484,3.1472,3.1436,3.1542,3.149,3.1538,3.1538,3.1559,3.1557,3.1712,3.1577,3.1577,3.1576,3.1576,0,3.1273,3.1329,3.1316,3.1353,3.1415,3.1398,3.1459,3.1463,3.1476,3.1512,3.1485,3.1519,3.1503,3.1536,3.1527,3.1583,3.1592,3.1589,3.1585,3.1589,3.1589,3.1598,3.1589,3.158,3.1579,3.1579,3.1578,0,3.1393,3.1387,3.1451,3.1461,3.1465,3.1509,3.1518,3.1552,3.155,3.1596,3.1606,3.1602,3.1639,3.163,3.1672,3.1665,3.1734,3.1724,3.1728,3.1724,3.1772,3.1766,3.1934,3.1954,3.181,3.1812,3.1813,0,3.147,3.1512,3.1527,3.1549,3.1559,3.1596,3.1617,3.1602,3.1625,3.1647,3.1678,3.1713,3.174,3.1801,3.1801,3.1832,3.182,3.1877,3.1824,3.1826,3.1816,3.1812,3.1814,3.1886,3.1888,3.1889,3.189,0,3.1606,3.1601,3.1632,3.1662,3.1687,3.171,3.1731,3.175,3.1737,3.1764,3.1801,3.1822,3.1864,3.1897,3.1926,3.1933,3.1908,3.1907,3.1919,3.1922,3.1921,3.1918,3.1753,3.1903,3.1901,3.19,3.19,3.1899,3.1704,3.1739,3.1754,3.1789,3.1803,3.1822,3.1853,3.1855,3.1886,3.1918,3.1908,3.195,3.1965,3.2,3.2011,3.2043,3.2021,3.204,3.2044,3.2047,3.2051,3.1919,3.2049,3.2048,3.2048,3.2048,3.2047,0,3.1835,3.1843,3.1876,3.1904,3.1931,3.1908,3.1929,3.1952,3.199,3.2006,3.2033,3.2075,3.2107,3.211,3.214,3.2165,3.2154,3.2173,3.2169,3.217,3.2071,3.2056,3.2181,3.2181,3.2181,3.2181,3.2181,3.2181,3.1906,3.1962,3.1959,3.2021,3.2028,3.2069,3.2082,3.2099,3.2111,3.2159,3.2186,3.2188,3.2198,3.2229,3.2257,3.2257,3.2268,3.229,3.2285,3.2191,3.2178,3.2165,3.215,3.2293,3.2294,3.2381,3.2382,3.2383]},{"header":{"parameterUnit":"m.s-1","parameterCategory":1,"la1":30.2991,"la2":30.254,"lo1":-89.0895,"lo2":-89.0444,"dy":0.0017,"dx":0.0017,"nx":28,"ny":28,"refTime":"2025-06-06T03:00:00:Z","depth":0,"parameterNumber":3,"parameterNumberName":"V-component_of_WINDS"},"data":[0,0,0,0,0,0,0,0,0,0,0,0,0,0,0,0,0,0,0,0,0,0,0,0,0,0,0,0,0,0,0,0,0,0,0,0,0,0,0,0,0,0,0,0,0,0,0,0,0,0,0,0,0,0,0,0,0,0,2.5362,2.5364,0,2.551,2.5511,2.5513,2.5524,2.5523,2.5521,2.552,2.5671,2.5677,2.5682,0,0,0,0,0,0,0,0,0,0,0,0,0,2.509,2.5095,2.5362,2.5364,2.5366,2.5509,2.5511,2.5513,2.5525,2.5523,2.5521,2.5519,2.567,2.5676,2.5683,0,0,0,0,0,0,0,0,0,0,0,0,0,2.522,2.5097,2.5362,2.5389,2.5393,2.5509,2.5511,2.5514,2.5525,2.5523,2.552,2.5518,2.5667,2.5675,2.5684,2.5783,0,0,2.5709,2.5713,0,0,0,0,0,0,0,0,2.5213,2.523,2.5383,2.5387,2.5392,2.5496,2.5471,2.5604,2.5526,2.5475,2.552,2.5517,2.5615,2.5628,2.5661,2.579,2.5797,2.571,2.5715,2.5718,2.5721,0,0,0,0,0,0,0,2.5204,2.5224,2.5421,2.5385,2.5391,2.5393,2.5409,2.5496,2.5557,2.5479,2.548,2.5498,2.5617,2.5652,2.5664,2.5799,2.571,2.5717,2.5722,2.5725,2.6017,2.6019,0,0,0,0,0,0,2.519,2.5216,2.5416,2.5425,2.5294,2.54,2.5418,2.5465,2.5556,2.5567,2.5499,2.5498,2.5639,2.5654,2.567,2.5791,2.5718,2.5726,2.5731,2.6014,2.6017,2.602,0,0,0,0,0,0,2.5184,2.5207,2.541,2.5321,2.5347,2.5408,2.546,2.5469,2.5505,2.5571,2.5582,2.5525,2.5638,2.5658,2.5755,2.5797,2.573,2.5737,2.6011,2.6015,2.6019,2.6036,0,0,0,0,0,0,2.5176,2.5205,2.5244,2.5322,2.5352,2.5493,2.5463,2.5474,2.5519,2.5518,2.5598,2.5609,2.5638,2.5742,2.5763,2.5807,2.5744,2.6007,2.6013,2.6018,2.6032,2.604,2.6047,0,0,0,0,0,2.5166,2.5243,2.5246,2.527,2.5401,2.5495,2.5512,2.5544,2.5522,2.5561,2.5604,2.5606,2.5789,2.5752,2.5775,2.5823,2.6005,2.6011,2.6017,2.6028,2.6039,2.6047,0,0,0,0,0,0,2.5169,2.5254,2.5258,2.5362,2.5421,2.5497,2.5547,2.5554,2.562,2.5617,2.5653,2.5671,2.5767,2.5804,2.5762,2.5923,2.5894,2.5906,2.5895,2.5905,2.5913,2.5901,2.5751,0,0,0,0,0,2.5182,2.5251,2.5321,2.5407,2.5436,2.5487,2.5529,2.5548,2.5611,2.5636,2.5685,2.5746,2.5817,2.5863,2.5932,2.6037,2.6054,2.6081,2.6089,2.6095,2.6104,2.6161,2.6174,2.6041,2.6041,2.6041,0,0,2.5209,2.5264,2.5306,2.5409,2.5457,2.5527,2.5508,2.5583,2.5636,2.5647,2.5741,2.578,2.585,2.5951,2.5998,2.5985,2.6144,2.6103,2.6107,2.6113,2.6169,2.6181,2.6192,2.6045,2.6044,2.6043,0,0,2.5295,2.5344,2.542,2.5468,2.554,2.5573,2.5591,2.5666,2.5691,2.5786,2.5796,2.5859,2.5981,2.603,2.6071,2.6174,2.6178,2.6195,2.6235,2.629,2.6301,2.631,2.6346,2.6359,2.6204,2.6204,2.6204,0,2.532,2.5426,2.5458,2.5533,2.5578,2.5591,2.5668,2.5713,2.5804,2.5835,2.5819,2.5972,2.602,2.6132,2.6157,2.619,2.6211,2.6186,2.6297,2.6307,2.6316,2.635,2.6364,2.6206,2.6206,2.6205,2.6205,0,2.5453,2.5526,2.5579,2.5666,2.5717,2.5792,2.5835,2.5883,2.5897,2.5931,2.6027,2.6085,2.6166,2.6194,2.6209,2.6308,2.6298,2.6289,2.6261,2.633,2.6363,2.6376,2.6208,2.6207,2.6207,2.6207,0,0,2.5545,2.5648,2.5667,2.5706,2.5786,2.5844,2.5919,2.5997,2.6037,2.6099,2.6164,2.6266,2.6258,2.6304,2.6325,2.6374,2.645,2.6359,2.6361,2.6373,2.6561,2.6567,2.6581,2.6453,2.6456,2.6458,2.6555,0,2.5639,2.5774,2.5804,2.592,2.5988,2.6001,2.6067,2.6123,2.6156,2.6219,2.6256,2.6327,2.6312,2.634,2.6389,2.643,2.6488,2.6424,2.6513,2.6515,2.6494,2.6599,2.6605,2.6694,2.6568,2.657,2.6572,0,2.5767,2.5831,2.5954,2.6024,2.6054,2.6112,2.6186,2.6245,2.6309,2.633,2.6381,2.6396,2.6475,2.6443,2.6552,2.6507,2.6545,2.6571,2.6575,2.6585,2.6547,2.661,2.6724,2.6737,2.6593,2.6591,2.659,0,2.5821,2.5939,2.6027,2.606,2.6144,2.6185,2.6222,2.6283,2.6328,2.6392,2.6421,2.6494,2.6534,2.6589,2.6624,2.6597,2.6729,2.67,2.6749,2.6748,2.6776,2.6774,2.6896,2.6801,2.6801,2.6801,2.68,0,2.5923,2.5997,2.6052,2.6106,2.6189,2.6223,2.6305,2.6342,2.6396,2.6457,2.6473,2.653,2.6572,2.6635,2.6662,2.6748,2.6766,2.6785,2.6791,2.6783,2.6781,2.6808,2.6803,2.6804,2.6803,2.6803,2.6802,0,2.5997,2.6037,2.6134,2.6205,2.6225,2.6283,2.6344,2.6397,2.643,2.6508,2.6528,2.6581,2.6655,2.6695,2.6789,2.6807,2.6903,2.6906,2.6881,2.6884,2.6929,2.6924,2.7074,2.7095,2.6986,2.6987,2.6988,0,2.6059,2.6117,2.6194,2.6236,2.6273,2.6341,2.6386,2.6421,2.6467,2.6543,2.6587,2.6662,2.6725,2.6844,2.689,2.6962,2.6966,2.7014,2.6977,2.6967,2.6966,2.6962,2.6968,2.702,2.7021,2.7022,2.7023,0,2.6165,2.6181,2.6246,2.6317,2.637,2.6428,2.6486,2.6519,2.6563,2.6615,2.6691,2.6739,2.6834,2.6909,2.6984,2.7022,2.703,2.7034,2.7049,2.7041,2.7024,2.7033,2.6898,2.703,2.7029,2.7029,2.7028,2.7028,2.6235,2.6286,2.6348,2.6419,2.6465,2.6518,2.6571,2.661,2.6674,2.6754,2.6771,2.6851,2.6912,2.7014,2.7054,2.7117,2.7107,2.7129,2.7134,2.7139,2.7141,2.7014,2.7131,2.7131,2.713,2.713,2.713,0,2.6341,2.6381,2.6446,2.6524,2.658,2.6582,2.6645,2.6691,2.6762,2.6818,2.6879,2.6966,2.7038,2.7089,2.7163,2.7203,2.7209,2.7221,2.7218,2.7227,2.7145,2.7125,2.7216,2.7216,2.7216,2.7215,2.7215,2.7215,2.6402,2.6488,2.6512,2.662,2.666,2.6738,2.6774,2.6823,2.6868,2.6964,2.7023,2.7056,2.7111,2.7188,2.7254,2.7267,2.7293,2.7305,2.7319,2.7242,2.7233,2.7224,2.7205,2.7311,2.7311,2.7395,2.7396,2.7396]}]]